Retour au catalogue

COSMOS 2308

GLONASS

ActifNavigationMEO
NORAD 23512·PAYLOAD·🇷🇺 Russia

Lancé Mar 7, 1995 depuis Baikonur Cosmodrome

Loading…

Prochains Passages (prochaines 24 heures)

TLE

VieillissantSource: Space-Track

Époque: Aug 31, 2026, 10:14 UTC

1 23512U 95009B   26243.42690065 -.00000003  00000-0  00000+0 0  9998
2 23512  63.9506 298.4484 0005118 310.0138 139.1018  2.13099954244818

Suivez COSMOS 2308 en temps réel avec AllMySat

Download on the App Store